Plattsburgh, NY

12:04 AM EST on February 20, 2017 (GMT -0500)
Plattsburgh International

Weather History for KPBG - October, 2012

Change the Weather History Date:

Wednesday, October 10, 2012

  Actual Average Record
Temperature  
Mean Temperature 49 °F 49 °F  
Max Temperature 58 °F 59 °F 81 °F (1955)
Min Temperature 39 °F 40 °F 25 °F (1972)
Degree Days  
Heating Degree Days 16 16  
Month to date heating degree days 115 140  
Since 1 July heating degree days 339 375  
Cooling Degree Days 0 0  
Month to date cooling degree days 0 0  
Year to date cooling degree days 493 345  
Moisture  
Dew Point 45 °F    
Average Humidity 81    
Maximum Humidity 100    
Minimum Humidity 61    
Precipitation  
Precipitation T in - 0.54 in (1967)
Month to date precipitation 0.86  
Year to date precipitation 21.38  
Sea Level Pressure  
Sea Level Pressure 29.85 in    
Wind  
Wind Speed 8 mph (South)    
Max Wind Speed 23 mph    
Max Gust Speed 32 mph    
Visibility 10 miles    
Events      
T = Trace of Precipitation, MM = Missing Value Source: NWS Daily Summary

Daily Weather History Graph

Daily Weather History Graph

Search for Another Location

Airport or City:

Trip Planner

Search our weather history database for the weather conditions in past years. The results will help you decide how hot, cold, wet, or windy it might be!

Date:

Astronomy

Oct. 10, 2012 Rise Set
Actual Time 7:03 AM EDT 6:17 PM EDT
Civil Twilight 6:34 AM EDT 6:46 PM EDT
Nautical Twilight 6:00 AM EDT 7:20 PM EDT
Astronomical Twilight 5:26 AM EDT 7:54 PM EDT
Moon 1:24 AM EDT (10/10) 3:29 PM EDT (10/10)
Length of Visible Light 12h 12m
Length of Day
11h 13m
Waning Crescent, 27% of the Moon is Illuminated
Oct 10
Waning Crescent
Oct 15
New
Oct 21
First Quarter
Oct 29
Full
Nov 6
Last Quarter

Hourly Weather History & Observations

Time (EDT) Temp. Windchill Dew Point Humidity Pressure Visibility Wind Dir Wind Speed Gust Speed Precip Events Conditions
12:53 AM 43.0 °F - 41.0 °F 93% 30.06 in 10.0 mi Calm Calm - N/A   Clear
1:53 AM 39.9 °F - 39.0 °F 97% 30.04 in 10.0 mi Calm Calm - N/A   Clear
2:53 AM 45.0 °F 42.6 °F 42.1 °F 90% 30.02 in 10.0 mi South 4.6 mph - N/A   Clear
3:53 AM 39.9 °F - 37.9 °F 93% 30.00 in 10.0 mi Calm Calm - N/A   Overcast
4:53 AM 50.0 °F - 46.0 °F 86% 29.98 in 10.0 mi South 4.6 mph - N/A   Mostly Cloudy
5:53 AM 51.1 °F - 46.0 °F 83% 29.97 in 10.0 mi South 9.2 mph 18.4 mph N/A   Overcast
6:53 AM 52.0 °F - 46.0 °F 80% 29.95 in 10.0 mi SSE 16.1 mph 21.9 mph N/A   Overcast
7:26 AM 51.8 °F - 46.4 °F 82% 29.95 in 10.0 mi South 13.8 mph 21.9 mph N/A   Overcast
7:53 AM 53.1 °F - 46.0 °F 77% 29.94 in 10.0 mi SSE 12.7 mph 20.7 mph N/A   Overcast
8:53 AM 54.0 °F - 46.0 °F 75% 29.91 in 10.0 mi SSE 17.3 mph 24.2 mph N/A   Overcast
9:53 AM 54.0 °F - 45.0 °F 72% 29.89 in 10.0 mi SSE 16.1 mph 21.9 mph N/A   Overcast
10:53 AM 55.0 °F - 46.9 °F 74% 29.86 in 10.0 mi SSE 15.0 mph 18.4 mph N/A   Overcast
11:05 AM 55.4 °F - 46.4 °F 72% 29.85 in 10.0 mi SSE 10.4 mph - N/A   Overcast
11:34 AM 55.4 °F - 46.4 °F 72% 29.82 in 10.0 mi SSE 17.3 mph 20.7 mph N/A   Overcast
11:53 AM 55.0 °F - 48.0 °F 77% 29.83 in 10.0 mi South 12.7 mph 19.6 mph N/A   Overcast
12:31 PM 55.4 °F - 48.2 °F 77% 29.80 in 10.0 mi South 10.4 mph 18.4 mph N/A   Overcast
12:53 PM 55.0 °F - 48.9 °F 80% 29.80 in 10.0 mi South 9.2 mph 18.4 mph N/A   Overcast
1:31 PM 55.4 °F - 51.8 °F 88% 29.75 in 10.0 mi SSE 17.3 mph 21.9 mph N/A   Overcast
1:53 PM 57.0 °F - 51.1 °F 81% 29.74 in 10.0 mi SSE 18.4 mph 24.2 mph N/A   Overcast
2:53 PM 55.9 °F - 51.1 °F 84% 29.71 in 10.0 mi SSE 12.7 mph - N/A   Overcast
3:53 PM 55.9 °F - 52.0 °F 87% 29.69 in 10.0 mi South 5.8 mph - 0.00 in   Overcast
4:53 PM 55.9 °F - 52.0 °F 87% 29.68 in 10.0 mi South 8.1 mph - N/A   Mostly Cloudy
5:53 PM 55.0 °F - 52.0 °F 89% 29.69 in 10.0 mi Calm Calm - N/A   Scattered Clouds
6:53 PM 53.1 °F - 42.1 °F 66% 29.73 in 10.0 mi Variable 6.9 mph 17.3 mph 0.00 in   Overcast
7:53 PM 52.0 °F - 39.9 °F 63% 29.75 in 10.0 mi West 9.2 mph - N/A   Mostly Cloudy
8:53 PM 51.1 °F - 39.9 °F 66% 29.77 in 10.0 mi Calm Calm - N/A   Overcast
9:53 PM 50.0 °F - 37.9 °F 63% 29.81 in 10.0 mi West 11.5 mph 17.3 mph N/A   Overcast
10:53 PM 48.0 °F - 37.0 °F 66% 29.80 in 10.0 mi Calm Calm - N/A   Overcast
11:53 PM 46.9 °F - 37.0 °F 68% 29.80 in 10.0 mi Variable 3.5 mph - N/A   Partly Cloudy